TimeCDT,TemperatureF,Dew PointF,Humidity,Sea Level PressureIn,VisibilityMPH,Wind Direction,Wind SpeedMPH,Gust SpeedMPH,PrecipitationIn,Events,Conditions,WindDirDegrees,DateUTC
12:15 AM,46.4,30.2,53,29.98,10.0,South,3.5,-,N/A,,Clear,170,2012-10-02 05:15:00
12:35 AM,42.8,30.2,61,29.98,10.0,Calm,Calm,-,N/A,,Clear,0,2012-10-02 05:35:00
12:55 AM,44.6,30.2,57,29.97,10.0,SSW,3.5,-,N/A,,Clear,210,2012-10-02 05:55:00
1:15 AM,44.6,28.4,53,29.96,10.0,South,3.5,-,N/A,,Clear,170,2012-10-02 06:15:00
1:35 AM,44.6,30.2,57,29.95,10.0,South,5.8,-,N/A,,Clear,170,2012-10-02 06:35:00
1:55 AM,44.6,30.2,57,29.95,10.0,SSE,6.9,-,N/A,,Clear,160,2012-10-02 06:55:00
2:15 AM,44.6,30.2,57,29.94,10.0,South,6.9,-,N/A,,Clear,170,2012-10-02 07:15:00
2:35 AM,44.6,33.8,66,29.94,10.0,SSE,6.9,-,N/A,,Clear,160,2012-10-02 07:35:00
2:55 AM,42.8,32.0,66,29.94,10.0,SSE,6.9,-,N/A,,Clear,160,2012-10-02 07:55:00
3:15 AM,42.8,32.0,66,29.93,10.0,SSE,8.1,-,N/A,,Clear,150,2012-10-02 08:15:00
3:35 AM,42.8,30.2,61,29.92,10.0,SSE,8.1,-,N/A,,Clear,150,2012-10-02 08:35:00
3:55 AM,42.8,30.2,61,29.92,10.0,SSE,5.8,-,N/A,,Clear,160,2012-10-02 08:55:00
4:15 AM,42.8,32.0,66,29.92,10.0,SSE,6.9,-,N/A,,Clear,150,2012-10-02 09:15:00
4:35 AM,42.8,30.2,61,29.92,10.0,SSE,9.2,-,N/A,,Clear,160,2012-10-02 09:35:00
4:55 AM,41.0,30.2,65,29.92,10.0,SSE,6.9,-,N/A,,Clear,160,2012-10-02 09:55:00
5:15 AM,41.0,32.0,70,29.91,10.0,SSE,8.1,-,N/A,,Clear,150,2012-10-02 10:15:00
5:35 AM,41.0,30.2,65,29.90,10.0,SSE,9.2,-,N/A,,Clear,150,2012-10-02 10:35:00
5:55 AM,42.8,30.2,61,29.90,10.0,SSE,8.1,-,N/A,,Clear,160,2012-10-02 10:55:00
6:15 AM,44.6,30.2,57,29.90,10.0,South,10.4,-,N/A,,Clear,170,2012-10-02 11:15:00
6:35 AM,44.6,32.0,61,29.89,10.0,SSE,8.1,-,N/A,,Clear,160,2012-10-02 11:35:00
6:55 AM,44.6,30.2,57,29.89,10.0,South,10.4,-,N/A,,Clear,170,2012-10-02 11:55:00
7:15 AM,44.6,30.2,57,29.89,10.0,South,10.4,-,N/A,,Clear,170,2012-10-02 12:15:00
7:35 AM,44.6,30.2,57,29.88,10.0,South,10.4,-,N/A,,Clear,170,2012-10-02 12:35:00
7:55 AM,44.6,30.2,57,29.87,10.0,South,11.5,-,N/A,,Clear,170,2012-10-02 12:55:00
8:15 AM,46.4,30.2,53,29.88,10.0,South,11.5,-,N/A,,Clear,170,2012-10-02 13:15:00
8:35 AM,48.2,30.2,50,29.87,10.0,South,11.5,-,N/A,,Clear,180,2012-10-02 13:35:00
8:55 AM,50.0,30.2,47,29.87,10.0,South,11.5,17.3,N/A,,Clear,170,2012-10-02 13:55:00
9:15 AM,51.8,30.2,44,29.86,10.0,South,12.7,18.4,N/A,,Clear,180,2012-10-02 14:15:00
9:35 AM,55.4,28.4,36,29.85,10.0,South,11.5,19.6,N/A,,Clear,170,2012-10-02 14:35:00
9:55 AM,57.2,28.4,33,29.84,10.0,South,13.8,18.4,N/A,,Clear,180,2012-10-02 14:55:00
10:15 AM,60.8,28.4,29,29.84,10.0,South,15.0,23.0,N/A,,Clear,190,2012-10-02 15:15:00
10:35 AM,60.8,30.2,31,29.83,10.0,South,11.5,24.2,N/A,,Clear,190,2012-10-02 15:35:00
10:55 AM,64.4,30.2,28,29.82,10.0,South,19.6,24.2,N/A,,Clear,180,2012-10-02 15:55:00
11:15 AM,66.2,30.2,26,29.80,10.0,South,17.3,24.2,N/A,,Clear,180,2012-10-02 16:15:00
11:35 AM,66.2,30.2,26,29.79,10.0,South,19.6,26.5,N/A,,Clear,190,2012-10-02 16:35:00
11:55 AM,68.0,28.4,23,29.79,10.0,South,21.9,33.4,N/A,,Clear,190,2012-10-02 16:55:00
12:15 PM,69.8,28.4,21,29.77,10.0,South,16.1,34.5,N/A,,Clear,190,2012-10-02 17:15:00
12:35 PM,69.8,28.4,21,29.76,10.0,South,20.7,34.5,N/A,,Clear,190,2012-10-02 17:35:00
12:54 PM,69.8,28.4,21,29.76,10.0,South,23.0,35.7,N/A,,Clear,190,2012-10-02 17:54:00
1:15 PM,71.6,28.4,20,29.76,10.0,South,18.4,32.2,N/A,,Clear,190,2012-10-02 18:15:00
1:35 PM,71.6,26.6,19,29.75,10.0,South,20.7,33.4,N/A,,Clear,190,2012-10-02 18:35:00
1:55 PM,73.4,26.6,18,29.73,10.0,SSW,24.2,31.1,N/A,,Clear,200,2012-10-02 18:55:00
2:15 PM,73.4,26.6,18,29.72,10.0,South,18.4,28.8,N/A,,Clear,190,2012-10-02 19:15:00
2:35 PM,73.4,26.6,18,29.71,10.0,SSW,21.9,29.9,N/A,,Clear,200,2012-10-02 19:35:00
2:55 PM,75.2,26.6,17,29.71,10.0,SSW,23.0,32.2,N/A,,Clear,200,2012-10-02 19:55:00
3:15 PM,75.2,26.6,17,29.71,10.0,SSW,21.9,25.3,N/A,,Clear,210,2012-10-02 20:15:00
3:35 PM,75.2,24.8,15,29.71,10.0,SSW,21.9,28.8,N/A,,Clear,200,2012-10-02 20:35:00
3:55 PM,75.2,26.6,17,29.71,10.0,SSW,20.7,26.5,N/A,,Clear,210,2012-10-02 20:55:00
4:15 PM,75.2,26.6,17,29.71,10.0,SSW,19.6,25.3,N/A,,Clear,200,2012-10-02 21:15:00
4:34 PM,75.2,28.4,18,29.70,10.0,SSW,20.7,28.8,N/A,,Clear,210,2012-10-02 21:34:00
4:55 PM,75.2,28.4,18,29.70,10.0,SSW,16.1,25.3,N/A,,Clear,200,2012-10-02 21:55:00
5:15 PM,75.2,30.2,19,29.70,10.0,SSW,16.1,23.0,N/A,,Clear,200,2012-10-02 22:15:00
5:34 PM,75.2,30.2,19,29.71,10.0,SSW,17.3,21.9,N/A,,Clear,200,2012-10-02 22:34:00
5:55 PM,75.2,30.2,19,29.71,10.0,SSW,15.0,19.6,N/A,,Clear,200,2012-10-02 22:55:00
6:15 PM,75.2,30.2,19,29.70,10.0,SSW,13.8,18.4,N/A,,Clear,200,2012-10-02 23:15:00
6:35 PM,73.4,30.2,20,29.71,10.0,South,9.2,-,N/A,,Clear,190,2012-10-02 23:35:00
7:15 PM,71.6,30.2,22,29.71,10.0,South,10.4,-,N/A,,Clear,180,2012-10-03 00:15:00
7:35 PM,71.6,30.2,22,29.71,10.0,South,9.2,-,N/A,,Clear,180,2012-10-03 00:35:00
8:15 PM,64.4,30.2,28,29.72,10.0,South,8.1,-,N/A,,Clear,170,2012-10-03 01:15:00
8:35 PM,64.4,28.4,26,29.73,10.0,South,6.9,-,N/A,,Clear,170,2012-10-03 01:35:00
9:15 PM,60.8,28.4,29,29.75,10.0,South,6.9,-,N/A,,Clear,170,2012-10-03 02:15:00
9:35 PM,60.8,26.6,27,29.75,10.0,South,6.9,-,N/A,,Clear,180,2012-10-03 02:35:00
9:55 PM,59.0,26.6,29,29.78,10.0,West,8.1,18.4,N/A,,Clear,270,2012-10-03 02:55:00
10:15 PM,59.0,28.4,31,29.78,10.0,SSW,3.5,-,N/A,,Clear,200,2012-10-03 03:15:00
10:35 PM,60.8,30.2,31,29.78,10.0,South,3.5,-,N/A,,Clear,190,2012-10-03 03:35:00
10:55 PM,60.8,30.2,31,29.78,10.0,SSW,4.6,-,N/A,,Clear,200,2012-10-03 03:55:00
11:15 PM,57.2,30.2,36,29.79,10.0,Calm,Calm,-,N/A,,Clear,0,2012-10-03 04:15:00
11:34 PM,57.2,30.2,36,29.79,10.0,Calm,Calm,-,N/A,,Clear,0,2012-10-03 04:34:00
11:55 PM,53.6,30.2,41,29.80,10.0,Calm,Calm,-,N/A,,Clear,0,2012-10-03 04:55:00